TimeCST,TemperatureF,Dew PointF,Humidity,Sea Level PressureIn,VisibilityMPH,Wind Direction,Wind SpeedMPH,Gust SpeedMPH,PrecipitationIn,Events,Conditions,WindDirDegrees,DateUTC
12:15 AM,21.2,18.7,90,30.19,1.8,Calm,Calm,-,N/A,Snow,Light Snow,0,2013-12-11 06:15:00
12:24 AM,21.2,19.4,93,30.19,1.5,SSW,3.5,-,N/A,Snow,Light Snow,210,2013-12-11 06:24:00
12:35 AM,21.9,19.4,90,30.19,1.5,SW,3.5,-,N/A,Snow,Light Snow,230,2013-12-11 06:35:00
12:55 AM,22.5,20.1,91,30.20,2.0,West,3.5,-,N/A,Snow,Light Snow,270,2013-12-11 06:55:00
1:15 AM,22.5,20.3,91,30.22,2.0,North,10.4,-,N/A,Snow,Light Snow,350,2013-12-11 07:15:00
1:35 AM,20.8,18.0,89,30.24,5.0,North,12.7,-,N/A,Snow,Light Snow,360,2013-12-11 07:35:00
1:55 AM,19.4,15.8,86,30.26,10.0,North,15.0,18.4,N/A,,Scattered Clouds,360,2013-12-11 07:55:00
2:15 AM,18.5,14.9,86,30.29,10.0,North,12.7,-,N/A,,Scattered Clouds,360,2013-12-11 08:15:00
2:35 AM,18.1,14.7,86,30.30,10.0,North,13.8,-,N/A,,Scattered Clouds,350,2013-12-11 08:35:00
2:55 AM,18.5,14.9,86,30.32,10.0,NNW,15.0,-,N/A,,Scattered Clouds,340,2013-12-11 08:55:00
3:15 AM,18.1,13.5,82,30.33,10.0,NNW,18.4,24.2,N/A,,Mostly Cloudy,340,2013-12-11 09:15:00
3:35 AM,16.7,12.2,82,30.34,10.0,NNW,16.1,-,N/A,,Scattered Clouds,340,2013-12-11 09:35:00
3:55 AM,16.2,10.9,80,30.36,10.0,NNW,17.3,-,N/A,,Mostly Cloudy,340,2013-12-11 09:55:00
4:15 AM,13.8,7.7,77,30.38,10.0,North,18.4,25.3,N/A,,Overcast,350,2013-12-11 10:15:00
4:35 AM,12.2,5.7,75,30.41,10.0,North,21.9,26.5,N/A,,Overcast,360,2013-12-11 10:35:00
4:55 AM,10.9,4.6,76,30.43,10.0,North,17.3,-,N/A,,Overcast,350,2013-12-11 10:55:00
5:15 AM,9.1,1.2,70,30.44,10.0,North,23.0,28.8,N/A,,Overcast,360,2013-12-11 11:15:00
5:35 AM,6.8,-1.3,69,30.46,10.0,North,18.4,24.2,N/A,,Mostly Cloudy,350,2013-12-11 11:35:00
5:55 AM,5.5,-1.5,73,30.48,10.0,NNW,16.1,-,N/A,,Mostly Cloudy,340,2013-12-11 11:55:00
6:15 AM,3.7,-4.0,70,30.50,10.0,NNW,15.0,-,N/A,,Scattered Clouds,340,2013-12-11 12:15:00
6:35 AM,3.0,-4.9,70,30.51,10.0,NNW,13.8,20.7,N/A,,Clear,340,2013-12-11 12:35:00
6:55 AM,2.3,-6.2,68,30.52,10.0,NNW,13.8,-,N/A,,Clear,340,2013-12-11 12:55:00
7:15 AM,1.4,-6.7,69,30.53,10.0,NNW,12.7,-,N/A,,Clear,340,2013-12-11 13:15:00
7:35 AM,0.5,-7.2,70,30.54,10.0,NNW,11.5,-,N/A,,Clear,330,2013-12-11 13:35:00
7:55 AM,0.1,-7.6,70,30.56,10.0,NNW,11.5,-,N/A,,Clear,330,2013-12-11 13:55:00
8:15 AM,-0.8,-8.1,71,30.56,10.0,NW,9.2,-,N/A,,Clear,320,2013-12-11 14:15:00
8:35 AM,-0.4,-8.0,70,30.57,10.0,NNW,9.2,-,N/A,,Clear,330,2013-12-11 14:35:00
8:55 AM,-0.2,-8.0,70,30.58,10.0,NNW,9.2,-,N/A,,Clear,330,2013-12-11 14:55:00
9:15 AM,0.3,-7.6,69,30.59,10.0,NNW,11.5,-,N/A,,Clear,330,2013-12-11 15:15:00
9:35 AM,0.9,-7.6,68,30.60,10.0,NNW,10.4,-,N/A,,Clear,330,2013-12-11 15:35:00
9:55 AM,1.2,-7.6,67,30.61,10.0,NNW,11.5,-,N/A,,Clear,340,2013-12-11 15:55:00
10:15 AM,1.6,-7.8,65,30.63,10.0,NNW,9.2,-,N/A,,Clear,340,2013-12-11 16:15:00
10:35 AM,2.3,-7.6,63,30.63,10.0,NNW,9.2,-,N/A,,Clear,330,2013-12-11 16:35:00
10:55 AM,2.3,-7.2,64,30.62,10.0,North,9.2,-,N/A,,Clear,360,2013-12-11 16:55:00
11:15 AM,2.5,-6.9,65,30.62,10.0,NNW,9.2,-,N/A,,Clear,340,2013-12-11 17:15:00
11:35 AM,2.7,-7.1,64,30.63,10.0,North,8.1,-,N/A,,Clear,350,2013-12-11 17:35:00
11:55 AM,3.4,-6.5,63,30.62,10.0,North,6.9,-,N/A,,Clear,350,2013-12-11 17:55:00
12:15 PM,4.3,-5.8,63,30.61,10.0,NW,6.9,-,N/A,,Clear,320,2013-12-11 18:15:00
12:35 PM,4.8,-6.0,61,30.61,10.0,NW,5.8,-,N/A,,Clear,310,2013-12-11 18:35:00
12:55 PM,5.0,-5.1,63,30.61,10.0,WNW,10.4,-,N/A,,Clear,290,2013-12-11 18:55:00
1:15 PM,5.5,-3.8,65,30.60,10.0,West,11.5,-,N/A,,Clear,280,2013-12-11 19:15:00
1:35 PM,5.5,-3.6,66,30.59,10.0,West,11.5,-,N/A,,Clear,270,2013-12-11 19:35:00
1:55 PM,5.9,-3.8,64,30.59,10.0,WNW,11.5,-,N/A,,Clear,300,2013-12-11 19:55:00
2:15 PM,6.3,-3.3,65,30.58,10.0,WNW,12.7,-,N/A,,Clear,290,2013-12-11 20:15:00
2:35 PM,6.8,-2.7,65,30.58,10.0,West,11.5,16.1,N/A,,Clear,280,2013-12-11 20:35:00
2:55 PM,6.4,-3.5,64,30.58,10.0,West,11.5,-,N/A,,Clear,270,2013-12-11 20:55:00
3:15 PM,6.4,-3.5,64,30.59,10.0,West,11.5,-,N/A,,Clear,280,2013-12-11 21:15:00
3:35 PM,6.3,-3.6,64,30.59,10.0,West,12.7,-,N/A,,Clear,280,2013-12-11 21:35:00
3:55 PM,5.9,-4.7,62,30.58,10.0,WNW,6.9,-,N/A,,Clear,300,2013-12-11 21:55:00
4:15 PM,4.8,-5.1,64,30.58,10.0,West,6.9,-,N/A,,Clear,280,2013-12-11 22:15:00
4:35 PM,3.2,-6.0,66,30.58,10.0,West,6.9,-,N/A,,Clear,280,2013-12-11 22:35:00
4:55 PM,1.0,-6.9,69,30.57,10.0,West,4.6,-,N/A,,Clear,260,2013-12-11 22:55:00
5:15 PM,0.3,-7.4,70,30.57,10.0,West,4.6,-,N/A,,Clear,260,2013-12-11 23:15:00
5:35 PM,-0.2,-7.4,72,30.57,10.0,West,4.6,-,N/A,,Clear,260,2013-12-11 23:35:00
5:55 PM,-1.7,-8.1,74,30.58,10.0,West,4.6,-,N/A,,Clear,260,2013-12-11 23:55:00
6:15 PM,-2.6,-9.4,73,30.56,10.0,SW,4.6,-,N/A,,Clear,230,2013-12-12 00:15:00
6:35 PM,0.5,-6.7,72,30.55,10.0,SW,5.8,-,N/A,,Clear,230,2013-12-12 00:35:00
6:55 PM,-2.9,-8.9,76,30.55,10.0,South,5.8,-,N/A,,Clear,190,2013-12-12 00:55:00
7:15 PM,-3.5,-9.9,74,30.55,10.0,SSE,4.6,-,N/A,,Clear,160,2013-12-12 01:15:00
7:35 PM,-3.6,-9.9,74,30.54,10.0,South,5.8,-,N/A,,Clear,180,2013-12-12 01:35:00
7:55 PM,-4.0,-9.8,76,30.53,10.0,South,6.9,-,N/A,,Clear,190,2013-12-12 01:55:00
8:15 PM,-2.4,-8.5,75,30.54,10.0,South,9.2,-,N/A,,Clear,190,2013-12-12 02:15:00
8:35 PM,0.5,-5.8,75,30.53,10.0,SSW,8.1,-,N/A,,Clear,200,2013-12-12 02:35:00
8:55 PM,2.7,-4.0,74,30.51,10.0,SSW,9.2,-,N/A,,Clear,200,2013-12-12 02:55:00
9:15 PM,3.2,-3.5,74,30.51,10.0,SSW,9.2,-,N/A,,Clear,200,2013-12-12 03:15:00
9:35 PM,2.3,-4.5,73,30.51,10.0,South,8.1,-,N/A,,Clear,180,2013-12-12 03:35:00
9:55 PM,1.8,-5.3,72,30.51,10.0,South,8.1,-,N/A,,Clear,190,2013-12-12 03:55:00
10:15 PM,1.4,-5.3,74,30.49,10.0,South,9.2,-,N/A,,Clear,180,2013-12-12 04:15:00
10:35 PM,1.4,-5.4,73,30.48,10.0,South,10.4,-,N/A,,Clear,190,2013-12-12 04:35:00
10:55 PM,1.0,-5.8,73,30.48,10.0,SSW,9.2,-,N/A,,Clear,200,2013-12-12 04:55:00
11:15 PM,0.7,-5.8,74,30.47,10.0,South,9.2,-,N/A,,Clear,190,2013-12-12 05:15:00
11:35 PM,0.3,-6.0,75,30.46,10.0,South,9.2,-,N/A,,Clear,180,2013-12-12 05:35:00
11:55 PM,1.8,-4.9,74,30.45,10.0,South,11.5,-,N/A,,Clear,180,2013-12-12 05:55:00